Total_Precipitation_Accumulation
2.29 1.91 1.52 1.76 1.95 1.94 1.60 1.66 1.49 1.11 1.16 1.24 0.83 0.46 0.23 0.11 0.08 0.05 0.06 0.07 0.06 0.04 0.03 0.04 0.09 0.05 0.05 0.05 0.05 0.08 0.14 0.18 0.24 0.22 0.25 0.25 0.26 0.18 0.13 0.14 0.17 0.16 0.22 0.39 0.40 0.27 0.35 0.38 0.41 0.30 0.24 0.19 0.19 0.30 0.25 0.40 0.41 0.47 0.43 0.33 0.43 0.55 0.42 0.55 0.65 0.79 0.82 0.62 0.82 0.36 0.40 0.49 0.53 0.89 0.72 0.55 0.35 0.49 0.46 0.50 0.37 0.56 0.39 0.39 0.41
1.12 1.05 1.17 1.52 1.69 1.64 1.47 1.17 1.30 1.16 1.06 0.90 0.67 0.30 0.12 0.08 0.08 0.06 0.06 0.06 0.06 0.03 0.03 0.06 0.10 0.11 0.14 0.12 0.13 0.14 0.22 0.18 0.16 0.17 0.20 0.31 0.33 0.20 0.37 0.29 0.22 0.40 0.40 0.55 0.95 0.55 0.38 0.65 0.35 0.25 0.34 0.21 0.28 0.26 0.40 0.32 0.39 0.43 0.46 0.32 0.50 0.39 0.49 0.61 0.66 0.65 0.85 0.75 0.85 0.92 0.47 0.39 0.53 0.52 0.64 0.53 0.51 0.46 0.55 0.54 0.35 0.71 0.60 0.48 0.53
0.89 1.04 1.61 1.37 1.32 1.17 1.22 1.08 0.94 1.38 1.17 0.89 0.75 0.21 0.10 0.06 0.05 0.05 0.03 0.06 0.03 0.05 0.07 0.14 0.24 0.28 0.27 0.22 0.18 0.18 0.24 0.32 0.25 0.19 0.25 0.22 0.29 0.34 0.29 0.25 0.42 0.52 0.54 0.55 0.50 0.64 0.61 0.71 0.34 0.33 0.39 0.38 0.30 0.37 0.36 0.29 0.43 0.39 0.45 0.44 0.60 0.61 0.54 0.68 0.58 0.78 0.91 0.82 1.16 0.73 0.67 0.50 0.37 0.55 0.55 0.44 0.33 0.49 0.56 0.51 0.53 0.53 0.54 0.68 0.45
0.80 0.76 0.92 1.14 1.24 0.90 1.05 0.86 1.10 0.86 0.76 0.57 0.58 0.20 0.07 0.07 0.08 0.08 0.10 0.08 0.13 0.13 0.26 0.28 0.20 0.23 0.18 0.12 0.17 0.24 0.39 0.27 0.26 0.27 0.27 0.32 0.22 0.30 0.29 0.36 0.45 0.64 0.68 0.76 0.83 0.74 0.70 0.50 0.45 0.46 0.37 0.60 0.51 0.42 0.33 0.37 0.45 0.44 0.31 0.52 0.47 0.64 0.43 0.41 0.67 0.77 0.97 1.00 0.62 0.52 0.59 0.41 0.45 0.61 0.48 0.64 0.52 0.52 0.62 0.65 0.68 0.62 0.60 0.56 0.62
0.45 0.56 0.74 1.04 1.30 0.74 0.70 0.87 0.96 0.50 0.47 0.48 0.47 0.22 0.07 0.09 0.14 0.15 0.30 0.22 0.27 0.22 0.26 0.26 0.34 0.17 0.14 0.16 0.25 0.44 0.58 0.84 0.58 0.40 0.26 0.39 0.46 0.28 0.34 0.51 0.62 0.63 0.58 0.78 0.89 1.00 0.69 0.60 0.55 0.53 0.56 0.56 0.49 0.52 0.45 0.53 0.48 0.39 0.45 0.47 0.35 0.38 0.36 0.41 0.68 0.74 0.80 0.68 0.78 0.86 0.57 0.35 0.38 0.62 0.70 0.63 0.59 0.59 0.65 0.86 0.68 0.62 0.82 0.62 0.62
0.39 0.44 0.59 0.76 0.77 0.97 0.70 0.58 0.66 0.66 0.31 0.47 0.53 0.18 0.09 0.12 0.17 0.17 0.15 0.21 0.26 0.20 0.33 0.28 0.39 0.22 0.29 0.43 0.40 0.62 0.43 0.65 0.60 0.42 0.66 0.56 0.51 0.52 0.61 0.67 0.96 0.98 0.80 0.97 0.88 0.91 0.90 0.67 0.68 0.70 0.71 0.57 0.62 0.48 0.62 0.50 0.51 0.45 0.33 0.41 0.33 0.26 0.32 0.35 0.41 0.50 0.49 0.63 1.11 1.27 0.55 0.57 0.40 0.44 0.75 0.62 0.65 0.78 0.77 0.85 0.71 0.70 0.53 0.60 0.53
0.24 0.46 0.52 0.63 0.68 0.84 0.39 0.44 0.55 0.36 0.17 0.23 0.22 0.24 0.17 0.19 0.12 0.13 0.11 0.18 0.30 0.28 0.33 0.46 0.41 0.35 0.55 0.45 0.49 0.53 0.64 0.78 0.77 0.83 0.67 0.70 0.55 0.73 0.64 0.84 0.91 0.94 0.65 1.13 0.75 0.75 0.89 0.80 0.82 0.88 0.70 0.69 0.65 0.54 0.44 0.37 0.40 0.37 0.34 0.33 0.34 0.21 0.28 0.16 0.31 0.17 0.39 0.90 1.10 1.44 0.93 0.53 0.34 0.44 0.66 0.72 0.79 0.86 0.59 0.53 0.69 0.68 0.47 0.43 0.41
0.25 0.37 0.57 0.70 0.44 0.30 0.20 0.25 0.36 0.18 0.17 0.28 0.22 0.15 0.14 0.14 0.15 0.10 0.11 0.24 0.27 0.23 0.30 0.42 0.58 0.60 0.55 0.41 0.51 0.72 0.71 0.66 0.69 0.71 0.72 0.89 0.57 0.74 0.70 0.84 0.97 0.75 0.86 1.00 0.70 0.80 0.52 0.62 0.87 0.95 0.69 0.64 0.49 0.63 0.39 0.41 0.36 0.44 0.27 0.34 0.44 0.39 0.25 0.29 0.24 0.12 0.18 0.54 1.02 0.83 0.99 0.91 0.29 0.37 0.48 0.51 0.52 0.58 0.63 0.69 0.69 0.58 0.77 0.63 0.55
0.23 0.36 0.47 0.42 0.33 0.19 0.22 0.25 0.17 0.16 0.14 0.19 0.22 0.20 0.23 0.13 0.20 0.21 0.21 0.28 0.25 0.31 0.50 0.42 0.36 0.48 0.68 0.78 0.74 0.63 0.71 0.79 0.76 0.66 0.49 0.57 0.71 0.80 0.79 0.99 0.69 0.94 0.91 0.84 0.87 0.71 0.61 0.60 0.63 0.65 0.61 0.57 0.48 0.46 0.39 0.41 0.57 0.51 0.39 0.35 0.37 0.30 0.22 0.24 0.12 0.29 0.53 0.46 0.37 0.58 0.67 0.67 0.26 0.43 0.48 0.50 0.45 0.47 0.48 0.42 0.48 0.59 0.48 0.49 0.32
0.20 0.22 0.24 0.19 0.35 0.21 0.21 0.13 0.10 0.17 0.17 0.08 0.13 0.18 0.11 0.16 0.26 0.25 0.25 0.20 0.44 0.45 0.47 0.39 0.40 0.39 0.70 0.74 0.54 0.66 0.66 0.66 0.57 0.67 0.67 0.79 0.81 0.88 0.77 0.77 0.85 0.98 0.96 0.97 0.84 0.78 0.63 0.65 0.63 0.52 0.58 0.48 0.80 0.60 0.57 0.54 0.47 0.34 0.48 0.68 0.38 0.25 0.29 0.26 0.19 0.19 0.53 0.43 0.38 0.40 0.48 0.61 0.31 0.48 0.29 0.44 0.31 0.46 0.80 0.49 0.59 0.43 0.33 0.32 0.34
0.23 0.25 0.20 0.23 0.27 0.12 0.13 0.17 0.12 0.10 0.13 0.12 0.20 0.17 0.24 0.22 0.19 0.22 0.20 0.32 0.35 0.44 0.47 0.47 0.74 0.82 0.74 0.67 0.89 0.53 0.66 0.68 0.85 0.77 0.89 0.85 0.93 0.84 0.95 0.86 0.75 0.79 0.95 0.79 0.94 0.56 0.56 0.52 0.55 0.51 0.56 0.67 0.84 0.89 0.79 0.90 0.62 0.46 0.51 0.51 0.38 0.30 0.33 0.29 0.32 0.29 0.41 0.44 0.39 0.53 0.49 0.37 0.35 0.50 0.34 0.22 0.31 0.23 0.39 0.51 0.58 0.51 0.36 0.17 0.14
0.24 0.19 0.19 0.18 0.29 0.10 0.09 0.11 0.13 0.09 0.12 0.11 0.09 0.12 0.17 0.15 0.27 0.33 0.44 0.53 0.48 0.57 0.42 0.45 0.70 0.82 0.73 0.77 0.76 0.66 0.67 0.74 1.01 0.94 0.99 0.81 0.90 0.91 1.24 0.94 0.91 0.84 0.68 0.79 0.98 0.47 0.51 0.73 0.70 0.57 0.65 0.81 0.99 0.76 0.85 0.77 0.72 0.56 0.48 0.42 0.20 0.15 0.17 0.31 0.35 0.38 0.41 0.35 0.37 0.43 0.31 0.37 0.38 0.23 0.32 0.35 0.25 0.22 0.37 0.43 0.42 0.20 0.11 0.18 0.13
0.17 0.18 0.18 0.14 0.19 0.11 0.09 0.11 0.09 0.12 0.07 0.12 0.16 0.15 0.14 0.20 0.23 0.18 0.47 0.48 0.49 0.46 0.54 0.56 0.64 0.44 0.66 0.73 0.61 0.56 0.67 0.83 0.87 0.96 0.98 0.79 0.89 1.10 0.92 0.91 0.73 0.68 0.80 0.68 0.79 0.63 0.63 0.58 0.60 0.62 0.72 0.68 0.67 0.86 0.91 0.85 0.63 0.40 0.39 0.31 0.20 0.15 0.15 0.21 0.36 0.25 0.39 0.56 0.75 0.40 0.39 0.47 0.60 0.15 0.18 0.28 0.29 0.15 0.14 0.23 0.17 0.09 0.11 0.10 0.09
0.13 0.17 0.19 0.20 0.09 0.20 0.10 0.10 0.07 0.09 0.10 0.19 0.13 0.14 0.24 0.30 0.29 0.40 0.46 0.52 0.55 0.69 0.58 0.59 0.46 0.52 0.49 0.48 0.66 0.57 0.92 0.94 0.87 0.88 0.90 0.65 0.93 1.08 0.91 0.70 0.71 0.69 0.67 0.56 0.49 0.53 0.75 0.49 0.64 0.65 0.59 0.64 0.45 0.68 0.81 0.69 0.50 0.50 0.47 0.32 0.23 0.15 0.23 0.17 0.15 0.24 0.55 0.76 0.20 0.41 0.32 0.35 0.59 0.05 0.18 0.20 0.18 0.20 0.18 0.17 0.12 0.09 0.06 0.06 0.07
0.15 0.25 0.16 0.15 0.26 0.23 0.22 0.11 0.13 0.11 0.13 0.11 0.22 0.25 0.28 0.33 0.42 0.42 0.53 0.41 0.58 1.04 0.74 0.49 0.51 0.50 0.55 0.46 0.70 0.50 0.77 0.62 0.68 0.74 0.73 0.78 0.70 0.84 0.74 0.74 0.57 0.52 0.50 0.43 0.41 0.48 0.40 0.45 0.68 0.70 0.43 0.56 0.71 0.58 0.66 0.58 0.52 0.47 0.33 0.23 0.26 0.13 0.09 0.29 0.22 0.22 0.23 0.30 0.17 0.20 0.37 0.29 0.06 0.07 0.29 0.17 0.14 0.14 0.20 0.14 0.10 0.08 0.05 0.03 0.03
0.16 0.16 0.19 0.16 0.15 0.23 0.23 0.39 0.16 0.19 0.18 0.16 0.17 0.26 0.34 0.55 0.41 0.52 0.39 0.51 0.54 0.55 0.55 0.53 0.43 0.36 0.46 0.49 0.61 0.58 0.80 0.64 0.68 0.71 0.72 0.70 0.81 0.78 0.53 0.53 0.47 0.46 0.34 0.47 0.40 0.41 0.52 0.58 0.65 0.57 0.47 0.55 0.71 0.60 0.62 0.59 0.50 0.33 0.30 0.20 0.26 0.13 0.09 0.07 0.17 0.35 0.26 0.15 0.26 0.25 0.22 0.50 0.09 0.07 0.21 0.18 0.11 0.12 0.15 0.09 0.08 0.08 0.11 0.10 0.03
0.15 0.13 0.20 0.14 0.19 0.13 0.19 0.37 0.27 0.23 0.19 0.20 0.33 0.33 0.37 0.52 0.52 0.48 0.35 0.38 0.39 0.54 0.54 0.44 0.39 0.27 0.50 0.44 0.63 0.67 0.54 0.74 0.50 0.53 0.62 0.51 0.49 0.71 0.60 0.54 0.50 0.35 0.37 0.44 0.41 0.47 0.54 0.59 0.56 0.63 0.45 0.54 0.57 0.62 0.65 0.50 0.39 0.24 0.27 0.17 0.21 0.12 0.13 0.05 0.37 0.33 0.15 0.15 0.09 0.28 0.31 0.31 0.07 0.09 0.18 0.09 0.06 0.12 0.15 0.07 0.06 0.06 0.10 0.07 0.06
0.12 0.15 0.11 0.19 0.22 0.17 0.31 0.27 0.28 0.38 0.80 0.48 0.54 0.50 0.63 0.39 0.27 0.32 0.27 0.34 0.39 0.39 0.34 0.30 0.28 0.41 0.40 0.38 0.60 0.61 0.76 0.57 0.72 0.68 0.52 0.57 0.67 0.51 0.51 0.50 0.29 0.26 0.24 0.34 0.47 0.58 0.55 0.52 0.47 0.40 0.39 0.49 0.57 0.67 0.56 0.35 0.33 0.37 0.27 0.20 0.21 0.15 0.13 0.10 0.13 0.10 0.24 0.20 0.13 0.15 0.21 0.11 0.04 0.10 0.11 0.14 0.12 0.13 0.07 0.05 0.08 0.08 0.06 0.07 0.04
0.20 0.31 0.21 0.29 0.21 0.21 0.22 0.33 0.26 0.27 0.42 0.53 0.72 0.44 0.46 0.30 0.34 0.33 0.38 0.39 0.36 0.39 0.30 0.25 0.28 0.40 0.42 0.55 0.90 0.58 0.57 0.49 0.65 0.51 0.46 0.54 0.46 0.31 0.45 0.31 0.30 0.33 0.23 0.40 0.66 0.59 0.56 0.42 0.39 0.21 0.32 0.43 0.33 0.40 0.46 0.37 0.25 0.29 0.22 0.16 0.20 0.13 0.16 0.18 0.19 0.12 0.17 0.17 0.15 0.22 0.15 0.03 0.05 0.06 0.12 0.15 0.09 0.08 0.10 0.10 0.09 0.09 0.06 0.11 0.08
0.23 0.19 0.42 0.21 0.30 0.35 0.26 0.25 0.30 0.42 0.68 0.62 0.93 0.55 0.47 0.39 0.49 0.32 0.29 0.35 0.39 0.34 0.30 0.34 0.37 0.46 0.39 0.61 0.79 0.95 0.77 0.82 0.70 0.64 0.48 0.51 0.43 0.38 0.42 0.34 0.20 0.31 0.32 0.35 0.39 0.44 0.38 0.30 0.24 0.23 0.27 0.44 0.27 0.29 0.46 0.34 0.27 0.25 0.23 0.16 0.18 0.13 0.39 0.29 0.16 0.22 0.12 0.07 0.12 0.16 0.01 0.02 0.02 0.03 0.07 0.10 0.12 0.13 0.08 0.12 0.10 0.11 0.12 0.13 0.10
0.21 0.27 0.36 0.26 0.33 0.28 0.18 0.24 0.39 0.46 0.38 0.52 0.32 0.40 0.30 0.46 0.51 0.51 0.50 0.34 0.30 0.28 0.25 0.34 0.35 0.45 0.57 0.58 0.59 0.68 0.54 0.64 0.60 0.61 0.56 0.44 0.40 0.42 0.34 0.19 0.20 0.34 0.19 0.41 0.42 0.28 0.18 0.25 0.31 0.18 0.22 0.25 0.17 0.25 0.25 0.27 0.31 0.21 0.15 0.21 0.10 0.38 0.15 0.30 0.08 0.12 0.19 0.11 0.09 0.14 0.00 0.01 0.02 0.02 0.05 0.08 0.12 0.13 0.10 0.08 0.15 0.13 0.12 0.11 0.15
0.21 0.29 0.33 0.33 0.33 0.55 0.25 0.40 0.40 0.71 0.58 0.47 0.49 0.53 0.61 0.47 0.44 0.44 0.29 0.34 0.37 0.42 0.39 0.31 0.56 0.37 0.49 0.47 0.67 0.53 0.45 0.93 0.58 0.45 0.57 0.41 0.51 0.34 0.26 0.26 0.29 0.24 0.29 0.35 0.36 0.15 0.14 0.25 0.20 0.16 0.23 0.17 0.07 0.35 0.28 0.12 0.16 0.15 0.15 0.11 0.30 0.27 0.25 0.17 0.17 0.07 0.14 0.11 0.16 0.06 0.00 0.00 0.01 0.04 0.06 0.05 0.07 0.09 0.13 0.08 0.08 0.12 0.17 0.13 0.12
0.25 0.24 0.22 0.25 0.22 0.32 0.50 0.59 0.45 0.45 0.45 0.41 0.36 0.45 0.36 0.44 0.56 0.36 0.32 0.38 0.47 0.30 0.42 0.29 0.40 0.34 0.46 0.35 0.53 0.55 0.42 0.47 0.55 0.40 0.44 0.37 0.23 0.24 0.18 0.19 0.18 0.20 0.22 0.22 0.10 0.08 0.16 0.17 0.10 0.17 0.15 0.07 0.31 0.21 0.22 0.24 0.18 0.11 0.06 0.15 0.15 0.10 0.04 0.11 0.11 0.11 0.13 0.13 0.17 0.00 0.00 0.00 0.01 0.05 0.07 0.04 0.08 0.10 0.09 0.05 0.05 0.08 0.10 0.12 0.10
0.10 0.13 0.15 0.18 0.40 0.19 0.26 0.15 0.24 0.37 0.58 0.68 0.54 0.33 0.31 0.42 0.42 0.49 0.36 0.34 0.21 0.31 0.28 0.45 0.37 0.35 0.32 0.64 0.51 0.34 0.34 0.65 0.35 0.29 0.26 0.25 0.36 0.19 0.15 0.18 0.13 0.12 0.11 0.18 0.09 0.09 0.08 0.09 0.05 0.07 0.12 0.27 0.34 0.29 0.16 0.13 0.11 0.18 0.20 0.06 0.04 0.06 0.04 0.06 0.08 0.07 0.09 0.22 0.08 0.00 0.01 0.01 0.01 0.04 0.08 0.09 0.08 0.03 0.06 0.04 0.03 0.06 0.09 0.13 0.13
0.11 0.15 0.23 0.27 0.18 0.17 0.40 0.36 0.18 0.47 0.39 0.69 0.40 0.45 0.42 0.41 0.38 0.35 0.30 0.35 0.32 0.19 0.21 0.19 0.27 0.27 0.33 0.60 0.32 0.25 0.37 0.38 0.28 0.44 0.49 0.40 0.59 0.43 0.53 0.57 0.55 0.57 0.31 0.53 0.47 0.46 0.54 0.39 0.31 0.27 0.23 0.19 0.09 0.18 0.13 0.08 0.10 0.10 0.04 0.04 0.01 0.02 0.04 0.02 0.03 0.02 0.02 0.16 0.09 0.00 0.00 0.00 0.01 0.02 0.14 0.13 0.10 0.07 0.08 0.04 0.06 0.08 0.12 0.10 0.08
0.06 0.12 0.11 0.19 0.13 0.15 0.22 0.32 0.33 0.43 0.55 0.82 0.23 0.14 0.29 0.24 0.20 0.28 0.25 0.22 0.19 0.18 0.12 0.17 0.22 0.43 0.37 0.16 0.14 0.16 0.22 0.24 0.30 0.28 0.43 0.46 0.67 0.80 0.49 0.51 0.40 0.62 0.56 0.74 0.39 0.38 0.72 0.23 0.25 0.32 0.22 0.15 0.18 0.09 0.06 0.06 0.05 0.06 0.05 0.01 0.01 0.01 0.01 0.01 0.04 0.03 0.01 0.04 0.04 0.00 0.02 0.00 0.04 0.06 0.11 0.14 0.10 0.09 0.11 0.04 0.06 0.09 0.09 0.11 0.05
0.10 0.09 0.26 0.08 0.11 0.22 0.20 0.25 0.33 0.33 0.14 0.37 0.17 0.23 0.37 0.14 0.26 0.17 0.15 0.18 0.22 0.11 0.13 0.14 0.34 0.23 0.16 0.26 0.12 0.13 0.12 0.20 0.17 0.22 0.40 0.78 1.04 0.56 0.72 0.83 0.89 0.87 0.45 0.58 0.23 0.39 0.49 0.22 0.18 0.28 0.14 0.16 0.08 0.05 0.04 0.08 0.04 0.02 0.03 0.01 0.01 0.01 0.01 0.01 0.00 0.02 0.07 0.02 0.01 0.00 0.03 0.03 0.03 0.04 0.07 0.11 0.14 0.09 0.09 0.10 0.08 0.08 0.07 0.07 0.06
0.03 0.05 0.07 0.08 0.11 0.11 0.16 0.16 0.12 0.15 0.17 0.25 0.16 0.19 0.25 0.14 0.08 0.09 0.12 0.10 0.12 0.13 0.08 0.09 0.06 0.10 0.14 0.10 0.05 0.14 0.14 0.03 0.11 0.15 0.13 0.53 0.53 0.47 0.16 0.58 0.57 0.25 0.20 0.18 0.36 0.43 0.23 0.26 0.40 0.20 0.20 0.12 0.05 0.03 0.12 0.03 0.02 0.01 0.06 0.04 0.02 0.01 0.01 0.01 0.01 0.02 0.05 0.01 0.04 0.03 0.00 0.01 0.03 0.07 0.10 0.12 0.15 0.19 0.08 0.11 0.09 0.09 0.09 0.07 0.09
0.03 0.05 0.05 0.09 0.09 0.19 0.14 0.15 0.15 0.09 0.12 0.12 0.11 0.17 0.13 0.08 0.13 0.15 0.11 0.07 0.10 0.08 0.07 0.04 0.19 0.12 0.10 0.06 0.04 0.04 0.03 0.08 0.06 0.06 0.27 0.42 0.31 0.62 0.71 0.43 0.28 0.27 0.14 0.26 0.09 0.20 0.25 0.25 0.33 0.39 0.13 0.27 0.05 0.12 0.03 0.06 0.01 0.03 0.02 0.03 0.01 0.02 0.00 0.01 0.01 0.01 0.02 0.04 0.06 0.10 0.02 0.01 0.06 0.08 0.08 0.12 0.17 0.16 0.12 0.15 0.10 0.08 0.09 0.04 0.05
0.01 0.02 0.03 0.03 0.06 0.04 0.06 0.08 0.04 0.17 0.07 0.11 0.08 0.08 0.09 0.19 0.07 0.06 0.06 0.07 0.04 0.07 0.06 0.08 0.03 0.10 0.06 0.07 0.06 0.03 0.14 0.14 0.15 0.15 0.22 0.22 0.31 0.08 0.20 0.32 0.27 0.35 0.29 0.16 0.17 0.17 0.30 0.20 0.12 0.22 0.15 0.09 0.06 0.29 0.05 0.03 0.05 0.01 0.01 0.01 0.01 0.02 0.00 0.00 0.01 0.00 0.01 0.03 0.04 0.04 0.01 0.03 0.03 0.08 0.11 0.13 0.08 0.16 0.12 0.12 0.23 0.22 0.09 0.15 0.12
0.02 0.02 0.02 0.03 0.02 0.02 0.03 0.04 0.05 0.07 0.09 0.09 0.05 0.06 0.05 0.06 0.04 0.07 0.08 0.12 0.05 0.08 0.05 0.04 0.04 0.04 0.06 0.15 0.14 0.06 0.11 0.10 0.16 0.10 0.08 0.07 0.11 0.12 0.18 0.27 0.30 0.39 0.22 0.17 0.12 0.19 0.14 0.09 0.13 0.21 0.16 0.09 0.27 0.05 0.02 0.02 0.01 0.02 0.01 0.01 0.01 0.01 0.01 0.01 0.02 0.01 0.02 0.01 0.04 0.05 0.08 0.07 0.05 0.10 0.11 0.10 0.07 0.08 0.20 0.19 0.23 0.25 0.16 0.11 0.17
0.01 0.01 0.01 0.02 0.02 0.01 0.01 0.02 0.05 0.05 0.03 0.04 0.06 0.06 0.04 0.03 0.03 0.03 0.03 0.04 0.02 0.02 0.02 0.03 0.03 0.01 0.03 0.09 0.09 0.07 0.11 0.18 0.14 0.16 0.18 0.24 0.22 0.14 0.25 0.19 0.23 0.13 0.12 0.17 0.22 0.21 0.16 0.22 0.08 0.04 0.16 0.17 0.18 0.05 0.03 0.07 0.01 0.02 0.02 0.01 0.00 0.01 0.01 0.02 0.01 0.00 0.00 0.00 0.00 0.05 0.04 0.13 0.13 0.09 0.13 0.10 0.13 0.14 0.16 0.16 0.24 0.36 0.34 0.35 0.40
0.00 0.00 0.00 0.00 0.01 0.01 0.02 0.02 0.02 0.03 0.03 0.03 0.04 0.03 0.07 0.02 0.05 0.02 0.02 0.02 0.02 0.03 0.06 0.01 0.01 0.01 0.05 0.03 0.16 0.11 0.37 0.21 0.15 0.06 0.06 0.14 0.20 0.23 0.12 0.09 0.19 0.27 0.09 0.12 0.13 0.13 0.18 0.24 0.34 0.10 0.14 0.12 0.06 0.02 0.02 0.04 0.02 0.01 0.01 0.01 0.00 0.00 0.00 0.00 0.00 0.01 0.00 0.01 0.00 0.02 0.05 0.10 0.15 0.17 0.10 0.08 0.25 0.20 0.19 0.16 0.21 0.25 0.11 0.16 0.08
0.00 0.01 0.01 0.00 0.01 0.01 0.01 0.02 0.02 0.02 0.02 0.03 0.02 0.03 0.03 0.01 0.03 0.02 0.02 0.02 0.02 0.04 0.01 0.00 0.01 0.01 0.03 0.10 0.06 0.10 0.16 0.27 0.09 0.09 0.09 0.10 0.11 0.16 0.13 0.10 0.10 0.09 0.09 0.14 0.28 0.20 0.19 0.13 0.14 0.11 0.11 0.10 0.04 0.03 0.04 0.03 0.01 0.01 0.01 0.00 0.01 0.00 0.00 0.01 0.00 0.00 0.02 0.01 0.03 0.02 0.03 0.08 0.10 0.15 0.12 0.04 0.07 0.07 0.14 0.16 0.18 0.24 0.19 0.18 0.15
0.00 0.00 0.00 0.00 0.01 0.00 0.00 0.01 0.01 0.02 0.02 0.02 0.02 0.02 0.01 0.01 0.00 0.01 0.01 0.03 0.02 0.01 0.00 0.01 0.06 0.06 0.02 0.08 0.09 0.09 0.10 0.11 0.09 0.13 0.09 0.14 0.15 0.07 0.12 0.12 0.08 0.14 0.17 0.09 0.24 0.20 0.17 0.21 0.08 0.10 0.09 0.04 0.04 0.03 0.01 0.02 0.01 0.01 0.00 0.00 0.00 0.00 0.00 0.00 0.00 0.00 0.00 0.01 0.01 0.01 0.02 0.04 0.10 0.06 0.19 0.20 0.04 0.11 0.09 0.12 0.17 0.14 0.20 0.17 0.20
0.00 0.00 0.00 0.00 0.01 0.00 0.00 0.00 0.00 0.02 0.02 0.01 0.01 0.01 0.01 0.02 0.01 0.00 0.01 0.03 0.02 0.03 0.02 0.01 0.03 0.05 0.08 0.06 0.08 0.14 0.10 0.16 0.12 0.12 0.12 0.11 0.14 0.33 0.16 0.22 0.12 0.15 0.24 0.18 0.20 0.23 0.30 0.23 0.13 0.22 0.05 0.06 0.03 0.03 0.01 0.01 0.01 0.01 0.01 0.00 0.00 0.00 0.00 0.00 0.01 0.00 0.01 0.02 0.04 0.02 0.02 0.01 0.04 0.06 0.07 0.09 0.16 0.10 0.05 0.13 0.15 0.27 0.12 0.14 0.16
0.00 0.00 0.00 0.00 0.00 0.00 0.00 0.01 0.01 0.01 0.02 0.01 0.00 0.01 0.02 0.01 0.01 0.01 0.01 0.01 0.03 0.02 0.10 0.04 0.03 0.04 0.06 0.04 0.07 0.07 0.07 0.06 0.10 0.11 0.10 0.15 0.10 0.10 0.17 0.15 0.14 0.18 0.11 0.25 0.29 0.13 0.45 0.14 0.11 0.08 0.05 0.04 0.03 0.03 0.02 0.00 0.01 0.01 0.00 0.00 0.00 0.00 0.00 0.03 0.00 0.00 0.00 0.01 0.05 0.10 0.05 0.05 0.02 0.02 0.06 0.05 0.08 0.20 0.02 0.08 0.08 0.08 0.07 0.16 0.14
0.00 0.00 0.00 0.00 0.00 0.00 0.00 0.00 0.01 0.01 0.01 0.01 0.01 0.01 0.01 0.01 0.01 0.02 0.02 0.04 0.03 0.03 0.05 0.03 0.03 0.03 0.06 0.03 0.04 0.05 0.05 0.09 0.14 0.16 0.19 0.09 0.15 0.16 0.28 0.27 0.21 0.19 0.22 0.13 0.41 0.20 0.10 0.13 0.25 0.10 0.05 0.08 0.03 0.03 0.02 0.02 0.01 0.01 0.01 0.00 0.00 0.00 0.00 0.00 0.00 0.01 0.01 0.01 0.03 0.02 0.05 0.04 0.06 0.03 0.09 0.06 0.08 0.05 0.14 0.04 0.04 0.05 0.03 0.06 0.09
0.00 0.00 0.00 0.00 0.00 0.00 0.00 0.00 0.00 0.02 0.03 0.00 0.01 0.01 0.01 0.02 0.01 0.01 0.02 0.03 0.02 0.02 0.02 0.02 0.03 0.01 0.03 0.02 0.03 0.06 0.08 0.11 0.14 0.11 0.11 0.14 0.10 0.12 0.11 0.15 0.10 0.21 0.19 0.23 0.27 0.26 0.25 0.10 0.11 0.18 0.03 0.05 0.03 0.01 0.00 0.00 0.02 0.01 0.00 0.00 0.00 0.00 0.00 0.00 0.00 0.01 0.01 0.03 0.01 0.01 0.04 0.04 0.02 0.01 0.01 0.03 0.05 0.05 0.09 0.17 0.21 0.17 0.12 0.05 0.09
0.00 0.00 0.00 0.00 0.00 0.00 0.00 0.00 0.01 0.02 0.01 0.01 0.03 0.03 0.04 0.01 0.01 0.01 0.02 0.01 0.02 0.02 0.02 0.06 0.06 0.08 0.02 0.01 0.02 0.07 0.03 0.12 0.07 0.10 0.18 0.22 0.33 0.09 0.25 0.18 0.15 0.18 0.44 0.23 0.30 0.32 0.21 0.31 0.10 0.12 0.09 0.04 0.02 0.01 0.00 0.00 0.00 0.00 0.00 0.00 0.00 0.00 0.00 0.00 0.00 0.01 0.01 0.03 0.02 0.03 0.02 0.01 0.00 0.01 0.01 0.00 0.01 0.06 0.04 0.06 0.10 0.16 0.13 0.13 0.08
0.00 0.00 0.00 0.00 0.00 0.01 0.00 0.00 0.01 0.00 0.01 0.01 0.05 0.03 0.03 0.02 0.03 0.03 0.05 0.03 0.05 0.02 0.06 0.05 0.10 0.04 0.00 0.01 0.01 0.05 0.04 0.03 0.06 0.11 0.07 0.12 0.20 0.19 0.18 0.21 0.19 0.26 0.31 0.37 0.21 0.29 0.14 0.20 0.11 0.07 0.07 0.04 0.02 0.01 0.00 0.00 0.00 0.00 0.00 0.00 0.00 0.00 0.00 0.00 0.01 0.01 0.00 0.02 0.00 0.01 0.00 0.00 0.00 0.01 0.00 0.00 0.00 0.02 0.05 0.04 0.04 0.09 0.12 0.24 0.12
0.00 0.00 0.00 0.00 0.00 0.00 0.00 0.00 0.00 0.00 0.00 0.01 0.03 0.03 0.02 0.02 0.03 0.18 0.02 0.08 0.03 0.03 0.06 0.04 0.08 0.03 0.01 0.01 0.03 0.02 0.01 0.03 0.07 0.12 0.11 0.11 0.15 0.13 0.17 0.29 0.18 0.22 0.19 0.30 0.22 0.21 0.08 0.15 0.12 0.15 0.05 0.06 0.02 0.01 0.00 0.00 0.00 0.02 0.02 0.03 0.00 0.00 0.00 0.00 0.01 0.01 0.00 0.03 0.01 0.01 0.02 0.00 0.00 0.00 0.00 0.00 0.01 0.00 0.00 0.01 0.01 0.04 0.09 0.16 0.18
0.00 0.00 0.00 0.00 0.00 0.00 0.00 0.00 0.00 0.00 0.00 0.00 0.01 0.02 0.01 0.01 0.05 0.07 0.10 0.09 0.07 0.04 0.05 0.03 0.04 0.04 0.02 0.00 0.03 0.07 0.02 0.02 0.03 0.05 0.04 0.14 0.15 0.25 0.17 0.26 0.12 0.17 0.14 0.09 0.10 0.13 0.20 0.13 0.11 0.12 0.11 0.02 0.02 0.00 0.00 0.00 0.02 0.01 0.00 0.01 0.04 0.07 0.03 0.00 0.02 0.05 0.01 0.00 0.01 0.01 0.01 0.01 0.00 0.00 0.00 0.00 0.00 0.01 0.01 0.01 0.00 0.00 0.00 0.03 0.04
0.00 0.00 0.00 0.00 0.00 0.00 0.00 0.00 0.00 0.00 0.00 0.02 0.02 0.01 0.02 0.04 0.14 0.02 0.16 0.03 0.15 0.02 0.02 0.04 0.08 0.07 0.03 0.03 0.01 0.02 0.06 0.05 0.07 0.09 0.14 0.14 0.10 0.13 0.13 0.14 0.10 0.14 0.18 0.23 0.13 0.14 0.11 0.16 0.14 0.06 0.05 0.13 0.08 0.01 0.01 0.01 0.03 0.00 0.05 0.15 0.13 0.05 0.09 0.06 0.03 0.02 0.01 0.01 0.00 0.02 0.00 0.01 0.00 0.00 0.00 0.00 0.01 0.01 0.01 0.02 0.00 0.00 0.00 0.00 0.02
0.00 0.00 0.00 0.00 0.00 0.00 0.00 0.00 0.00 0.00 0.01 0.01 0.00 0.00 0.04 0.03 0.06 0.04 0.04 0.02 0.05 0.03 0.02 0.05 0.06 0.04 0.02 0.03 0.02 0.04 0.03 0.06 0.04 0.07 0.07 0.07 0.10 0.13 0.14 0.12 0.09 0.05 0.07 0.09 0.20 0.16 0.09 0.11 0.07 0.11 0.04 0.10 0.06 0.02 0.01 0.00 0.00 0.00 0.04 0.03 0.05 0.09 0.21 0.07 0.02 0.02 0.02 0.03 0.00 0.01 0.01 0.00 0.01 0.01 0.01 0.02 0.00 0.01 0.01 0.01 0.05 0.01 0.05 0.01 0.00
0.00 0.00 0.00 0.00 0.00 0.00 0.00 0.00 0.00 0.00 0.01 0.00 0.01 0.01 0.02 0.01 0.03 0.05 0.08 0.03 0.08 0.02 0.02 0.02 0.03 0.03 0.06 0.02 0.05 0.07 0.05 0.06 0.03 0.03 0.07 0.04 0.07 0.11 0.04 0.09 0.14 0.07 0.11 0.12 0.08 0.06 0.04 0.12 0.08 0.06 0.06 0.01 0.07 0.08 0.02 0.00 0.00 0.00 0.00 0.01 0.00 0.14 0.04 0.04 0.06 0.20 0.02 0.01 0.01 0.00 0.01 0.01 0.01 0.01 0.01 0.00 0.00 0.00 0.01 0.01 0.00 0.01 0.03 0.00 0.03
0.00 0.00 0.01 0.00 0.00 0.00 0.00 0.00 0.00 0.00 0.00 0.00 0.01 0.01 0.01 0.01 0.04 0.03 0.06 0.03 0.05 0.02 0.03 0.06 0.02 0.01 0.06 0.03 0.05 0.07 0.05 0.04 0.11 0.03 0.06 0.05 0.09 0.08 0.06 0.06 0.07 0.07 0.05 0.03 0.05 0.09 0.11 0.07 0.03 0.02 0.03 0.03 0.02 0.04 0.06 0.01 0.00 0.01 0.00 0.00 0.00 0.01 0.00 0.02 0.09 0.09 0.10 0.03 0.05 0.02 0.02 0.01 0.01 0.00 0.00 0.00 0.00 0.01 0.00 0.00 0.00 0.01 0.03 0.00 0.00
0.00 0.00 0.01 0.00 0.00 0.00 0.00 0.00 0.00 0.00 0.00 0.00 0.00 0.00 0.00 0.02 0.05 0.03 0.07 0.02 0.03 0.02 0.04 0.05 0.00 0.02 0.03 0.02 0.02 0.06 0.02 0.04 0.03 0.02 0.09 0.03 0.04 0.09 0.09 0.13 0.06 0.11 0.03 0.10 0.09 0.11 0.12 0.05 0.04 0.06 0.04 0.03 0.03 0.02 0.15 0.04 0.04 0.03 0.01 0.01 0.01 0.00 0.00 0.00 0.01 0.04 0.04 0.11 0.08 0.02 0.01 0.01 0.01 0.00 0.00 0.01 0.00 0.01 0.01 0.00 0.00 0.00 0.02 0.05 0.00
0.00 0.00 0.00 0.00 0.01 0.00 0.00 0.00 0.00 0.00 0.00 0.00 0.00 0.00 0.00 0.02 0.06 0.05 0.02 0.01 0.05 0.03 0.02 0.01 0.01 0.01 0.03 0.03 0.03 0.03 0.01 0.03 0.03 0.04 0.03 0.05 0.02 0.07 0.09 0.07 0.05 0.07 0.01 0.03 0.06 0.05 0.05 0.06 0.05 0.04 0.03 0.03 0.04 0.03 0.02 0.05 0.04 0.09 0.01 0.09 0.00 0.01 0.00 0.00 0.00 0.00 0.06 0.06 0.07 0.04 0.03 0.01 0.02 0.02 0.03 0.00 0.00 0.01 0.00 0.00 0.03 0.00 0.01 0.01 0.00
0.01 0.01 0.00 0.00 0.01 0.00 0.00 0.00 0.00 0.00 0.00 0.00 0.00 0.00 0.01 0.02 0.02 0.03 0.07 0.02 0.02 0.03 0.08 0.04 0.04 0.02 0.03 0.02 0.06 0.03 0.01 0.04 0.06 0.02 0.02 0.06 0.02 0.05 0.07 0.07 0.04 0.06 0.01 0.25 0.06 0.05 0.04 0.03 0.03 0.05 0.04 0.04 0.03 0.02 0.05 0.01 0.01 0.03 0.01 0.02 0.01 0.01 0.01 0.01 0.01 0.01 0.04 0.00 0.02 0.08 0.04 0.05 0.05 0.02 0.01 0.02 0.02 0.01 0.01 0.01 0.00 0.01 0.01 0.01 0.01
0.02 0.04 0.04 0.02 0.02 0.05 0.00 0.01 0.00 0.00 0.00 0.00 0.00 0.01 0.00 0.01 0.01 0.18 0.07 0.07 0.01 0.03 0.03 0.02 0.06 0.02 0.05 0.02 0.03 0.07 0.12 0.02 0.03 0.04 0.05 0.02 0.02 0.03 0.06 0.03 0.09 0.07 0.07 0.10 0.02 0.03 0.06 0.08 0.02 0.05 0.04 0.07 0.04 0.10 0.03 0.02 0.02 0.01 0.01 0.00 0.00 0.01 0.00 0.02 0.02 0.02 0.02 0.02 0.02 0.06 0.04 0.05 0.03 0.01 0.04 0.01 0.02 0.02 0.02 0.02 0.02 0.00 0.01 0.01 0.01